Date,TemperatureHighF,TemperatureAvgF,TemperatureLowF,DewpointHighF,DewpointAvgF,DewpointLowF,HumidityHigh,HumidityAvg,HumidityLow,PressureMaxIn,PressureMinIn,WindSpeedMaxMPH,WindSpeedAvgMPH,GustSpeedMaxMPH,PrecipitationSumIn
2014-1-5,21,14,8,10,6,3,81,70,55,30.39,30.09,7,2,22,0.04
2014-1-6,29,16,8,12,7,1,78,67,43,30.46,30.26,3,0,11,0.01
2014-1-7,35,26,18,26,19,11,91,76,50,30.26,30.07,7,1,15,0.01
2014-1-8,32,28,26,29,26,23,91,90,87,30.11,30.05,4,0,13,0.04
2014-1-9,28,22,20,26,20,15,92,88,79,30.08,29.94,8,1,19,0.04
2014-1-10,35,30,20,27,22,15,90,75,63,30.18,29.88,16,7,31,0.00
2014-1-11,43,36,28,30,26,-100,85,70,54,30.19,29.80,6,1,24,0.26
2014-1-12,38,25,22,27,20,17,92,83,65,30.32,29.82,13,5,28,0.26
2014-1-13,32,27,23,27,24,20,91,86,79,30.40,30.29,10,3,20,0.00
2014-1-14,38,30,23,26,22,18,83,72,56,30.61,30.42,5,2,15,0.26
2014-1-15,39,26,18,22,17,13,89,70,44,30.58,30.43,6,1,16,0.07
2014-1-16,39,26,17,18,13,6,76,59,27,30.49,30.42,7,1,18,0.01
2014-1-17,40,26,18,19,11,-100,76,58,27,30.44,30.29,10,1,19,0.00
2014-1-28,34,23,13,18,12,4,82,62,43,30.28,30.16,7,1,15,0.00
2014-1-29,40,28,23,38,23,13,94,80,61,30.20,29.70,4,0,28,0.77
2014-1-30,29,26,22,27,24,20,94,91,85,29.85,29.73,6,1,13,0.61
2014-1-31,29,21,15,25,18,12,93,89,82,29.83,29.72,3,0,9,0.13
2014-2-1,24,18,13,19,14,-100,89,85,79,30.03,29.83,4,1,11,0.05
2014-2-2,24,16,10,17,11,6,90,82,69,30.03,29.85,1,0,7,0.05
2014-2-3,28,18,8,20,13,5,89,81,69,29.85,29.74,3,0,10,0.18
2014-2-4,21,15,8,17,11,4,89,84,73,30.01,29.73,4,1,13,0.01
2014-2-5,25,12,2,14,6,-2,88,78,60,30.02,29.90,4,0,10,0.01
2014-2-6,32,24,14,21,18,11,90,78,62,29.88,29.77,3,0,11,0.04
2014-2-7,22,21,20,20,19,18,93,92,90,29.77,29.75,0,0,2,0.04
2014-2-9,34,31,27,32,29,25,95,93,90,30.09,30.01,7,2,12,0.01
2014-2-10,36,30,20,34,27,18,96,89,72,30.24,29.96,8,2,15,0.36
2014-2-11,36,25,18,27,22,16,93,86,68,30.24,30.13,6,1,14,0.02
2014-2-12,34,29,23,33,27,21,96,92,83,30.23,30.05,5,0,10,0.02
2014-2-13,46,36,32,38,33,31,97,89,58,30.15,30.03,9,2,23,0.00
2014-2-14,47,38,32,37,33,31,96,85,56,30.17,30.05,8,1,16,0.00
2014-2-15,52,46,38,34,24,-100,78,44,29,30.13,29.97,8,2,16,0.00
2014-2-16,50,38,24,29,23,18,86,59,29,30.30,29.86,16,3,26,0.02
2014-2-17,48,33,19,19,13,3,90,54,15,30.28,29.96,10,2,20,0.01
2014-2-18,45,36,27,22,16,10,66,46,25,30.17,29.98,8,3,16,0.00
2014-2-19,42,27,19,25,17,10,89,67,38,30.05,29.74,14,4,26,0.00
2014-2-20,29,21,18,15,12,9,80,68,47,30.22,30.04,8,3,20,0.00
2014-2-21,36,31,24,22,16,3,82,56,25,30.10,29.96,11,3,26,0.06
2014-2-22,36,31,28,23,15,-100,77,55,36,30.02,29.92,13,4,26,0.02
2014-2-23,47,34,24,22,19,13,77,57,27,30.10,30.00,10,2,19,0.00
2014-2-24,46,36,28,27,20,13,77,56,28,30.15,30.05,9,2,17,0.00
2014-2-25,50,39,30,32,27,20,82,64,34,30.11,30.02,11,2,19,0.00
2014-2-26,36,33,31,32,29,28,89,87,83,30.11,30.08,1,0,2,0.00
2014-3-5,47,35,25,34,28,24,95,78,46,30.23,30.13,4,1,9,0.05
2014-3-6,48,38,31,33,28,21,95,69,34,30.13,29.91,6,1,18,0.16
2014-3-7,37,32,29,31,26,20,96,78,51,30.27,30.01,13,2,18,0.11
2014-3-8,49,34,24,28,24,21,93,70,34,30.43,30.28,5,1,10,0.01
2014-3-9,57,38,25,28,21,14,80,56,18,30.42,30.26,3,1,9,0.01
2014-3-10,55,41,29,31,20,-4,91,53,9,30.26,29.86,10,3,25,0.00
2014-3-11,36,28,21,28,23,18,92,84,66,30.34,30.03,8,2,16,0.01
2014-3-12,22,20,18,18,16,15,89,88,84,30.37,30.34,1,0,5,0.01
2014-3-13,46,38,24,17,8,-2,70,32,14,30.15,30.04,11,4,21,0.00
2014-3-14,46,34,22,31,15,10,90,50,23,30.20,30.09,10,3,21,0.00
2014-3-15,42,34,28,30,20,-100,89,63,31,30.47,30.19,12,2,21,0.10
2014-3-16,51,36,25,27,15,-100,72,48,24,30.50,30.15,11,2,18,0.02
2014-3-17,48,34,24,25,19,7,83,58,24,30.12,29.69,15,4,29,0.00
2014-3-18,28,23,19,20,16,13,85,74,62,30.15,29.89,7,2,14,0.00
2014-3-19,42,23,13,20,14,9,92,70,34,30.22,30.12,4,0,9,0.04
2014-3-20,50,31,25,22,13,-100,62,53,26,30.14,30.00,3,0,13,0.03
2014-3-21,43,33,24,20,15,-100,68,52,28,30.09,29.97,4,1,13,0.00
2014-4-3,39,29,19,25,22,16,92,76,51,30.10,29.90,8,2,12,0.00
2014-4-4,47,33,22,27,21,15,87,66,29,30.09,29.93,7,1,13,0.00
2014-4-5,41,33,30,33,25,-100,91,78,63,30.10,29.91,8,2,16,0.24
2014-4-6,39,33,29,33,29,26,94,85,70,30.22,30.09,9,2,17,0.01
2014-4-7,51,41,30,31,28,25,80,60,44,30.40,30.23,9,3,14,0.01
2014-4-8,61,45,30,33,29,25,86,58,25,30.40,30.26,7,2,15,0.00
2014-4-9,61,47,36,33,27,20,74,52,21,30.27,30.08,9,2,20,0.00
2014-4-14,45,32,18,24,14,-8,88,55,11,30.35,30.21,7,2,14,0.01
2014-4-15,58,43,27,24,15,7,60,37,13,30.23,29.87,11,2,20,0.01
2014-4-16,47,39,31,20,14,4,61,38,19,30.09,29.98,11,3,16,0.00
2014-4-17,61,42,28,23,20,18,68,46,22,30.14,29.99,13,1,19,0.00
2014-4-18,58,51,43,40,34,24,72,54,27,30.07,29.94,5,1,14,0.00
2014-4-19,62,48,37,40,35,-100,86,65,43,30.14,30.05,5,0,11,0.00
2014-4-20,60,48,39,39,31,21,86,55,26,30.30,30.13,9,2,17,0.00
2014-4-21,65,45,32,34,26,20,69,51,18,30.31,30.07,9,1,16,0.00
2014-4-22,63,49,31,37,28,-100,94,52,30,30.07,29.65,15,3,28,0.80
2014-4-23,39,31,27,29,24,16,94,76,41,30.13,29.87,7,3,15,0.15
2014-4-24,54,38,26,29,23,13,84,60,21,30.12,29.98,8,1,23,0.01
2014-4-25,59,44,35,38,28,17,93,58,20,29.99,29.68,7,2,17,0.01
2014-4-26,38,34,32,37,32,-100,96,93,90,29.74,29.51,9,3,19,0.02
2014-4-27,39,33,27,30,26,21,92,76,57,29.96,29.74,9,2,25,0.02
2014-4-28,34,30,25,28,23,19,93,75,56,30.35,29.95,10,3,20,0.02
2014-4-29,45,34,24,21,16,9,83,53,25,30.47,30.35,6,2,15,0.01
2014-4-30,53,36,27,25,21,19,73,57,33,30.53,30.40,2,0,7,0.01
2014-5-1,58,44,30,31,24,18,67,46,26,30.42,30.28,10,2,16,0.00
2014-5-2,65,52,36,32,26,15,76,44,15,30.29,30.17,12,2,19,0.00
2014-5-3,70,52,42,37,24,-100,58,39,16,30.18,29.97,4,1,14,0.00
2014-5-4,69,62,47,31,23,10,49,24,12,30.01,29.94,9,3,20,0.00
2014-5-5,62,52,44,36,30,24,57,44,27,29.98,29.83,6,1,13,0.00
2014-5-6,57,45,36,39,32,25,93,64,31,29.84,29.66,8,1,18,0.01
2014-5-7,36,36,36,34,34,34,94,94,94,29.75,29.75,0,0,1,0.00
2014-5-13,50,43,34,23,19,11,57,40,24,30.53,30.46,7,3,17,0.00
2014-5-14,57,47,30,28,20,13,67,38,19,30.53,30.39,10,3,22,0.00
2014-5-15,65,51,37,34,28,23,75,46,22,30.42,30.30,9,2,17,0.00
2014-5-16,69,56,42,34,30,26,65,40,22,30.31,30.12,7,2,14,0.00
2014-5-17,73,57,44,38,30,-100,60,40,19,30.12,29.97,6,2,14,0.00
2014-5-18,68,55,44,34,27,21,59,37,18,29.98,29.86,7,2,15,0.00
2014-5-19,61,49,40,39,29,-100,80,51,34,30.01,29.88,7,1,13,0.00
2014-5-20,69,49,36,42,31,-100,80,56,23,30.01,29.90,9,1,14,0.00
2014-5-21,68,53,39,39,30,24,72,45,20,30.12,29.94,13,1,18,0.00
2014-5-22,70,54,38,36,29,-100,68,43,22,30.20,30.09,7,1,20,0.00
2014-5-23,64,50,43,48,37,28,87,62,44,30.22,30.14,4,0,12,0.00
2014-5-24,59,49,43,48,42,-100,96,82,55,30.20,30.11,3,0,10,0.08
2014-5-25,69,56,44,48,43,36,94,66,32,30.21,30.13,8,2,14,0.02
2014-5-26,76,59,42,48,41,32,88,57,21,30.25,30.18,5,1,13,0.00
2014-5-27,80,63,47,43,35,27,65,40,17,30.25,30.16,7,1,15,0.00
2014-5-28,81,70,59,38,33,20,40,27,13,30.18,30.02,11,2,18,0.00
2014-5-29,69,59,50,47,42,34,73,54,33,30.19,30.03,9,2,16,0.00
2014-5-30,75,59,44,45,38,26,80,51,17,30.20,30.08,8,1,19,0.00
2014-5-31,75,60,46,45,34,-100,72,43,21,30.13,29.96,6,1,15,0.00
2014-6-1,67,54,45,38,35,32,64,50,31,30.18,30.05,5,1,17,0.00
2014-6-2,78,59,38,44,34,28,72,43,18,30.19,29.98,8,1,17,0.00
2014-6-3,73,65,50,42,36,27,53,34,24,30.11,29.93,13,1,24,0.00
2014-6-4,74,60,44,43,37,32,68,46,27,30.14,30.08,7,1,15,0.00
2014-6-5,73,64,48,44,34,25,63,34,23,30.19,30.10,8,2,15,0.00
2014-6-6,75,58,40,37,27,15,62,34,11,30.14,30.06,6,1,15,0.00
2014-6-7,73,57,42,40,32,-100,66,41,27,30.15,30.09,6,1,13,0.00
2014-6-8,65,56,46,42,37,29,66,48,37,30.29,30.10,8,2,19,0.00
2014-6-9,73,56,38,42,36,31,80,51,28,30.29,30.11,5,0,13,0.00
2014-6-10,78,62,48,44,37,23,63,43,14,30.13,30.01,11,1,17,0.00
2014-6-11,72,61,47,40,36,30,60,40,25,30.14,30.04,6,2,14,0.00
2014-6-12,79,60,43,50,38,29,60,46,29,30.16,29.98,4,0,13,0.00
2014-6-13,72,64,53,43,35,28,55,34,24,30.01,29.89,8,2,24,0.00
2014-6-14,56,49,39,36,30,-100,67,51,37,30.10,30.01,8,2,18,0.00
2014-6-15,69,53,37,40,34,29,77,53,26,30.07,29.84,3,0,11,0.00
2014-6-16,59,49,41,46,38,33,93,67,44,29.93,29.80,7,1,21,0.23
2014-6-17,45,39,32,44,33,-100,96,90,91,30.13,29.84,8,2,13,0.45
2014-6-18,54,41,31,42,34,27,97,78,45,30.26,30.09,4,1,11,0.01
2014-6-19,67,51,34,41,35,31,92,59,28,30.32,30.23,5,1,15,0.01
2014-6-20,79,60,43,45,35,24,70,44,13,30.29,30.12,5,1,12,0.00
2014-6-21,75,63,51,45,34,-100,56,37,24,30.16,30.10,5,1,11,0.00
2014-6-22,80,61,46,44,35,30,59,41,18,30.18,30.11,4,1,13,0.00
2014-6-23,77,60,47,46,39,34,68,48,23,30.22,30.15,4,0,9,0.00
2014-6-24,82,61,46,51,42,37,78,53,22,30.22,30.09,4,0,10,0.00
2014-6-25,82,66,48,51,38,25,76,42,13,30.16,30.01,7,1,17,0.00
2014-6-26,72,63,49,50,38,-100,93,47,19,30.06,29.93,8,3,17,0.01
2014-6-27,61,53,46,51,46,42,97,79,54,30.12,30.02,5,1,14,0.05
2014-6-28,72,57,44,48,40,-100,91,60,35,30.18,30.08,5,1,13,0.02
2014-6-29,78,61,44,50,43,38,81,54,32,30.25,30.14,4,0,12,0.00
2014-6-30,73,60,49,46,39,32,73,49,23,30.32,30.19,5,1,14,0.00
2014-7-1,78,60,46,44,39,34,68,49,27,30.33,30.23,2,0,6,0.00
2014-7-2,84,66,46,53,43,35,69,46,26,30.31,30.21,2,0,7,0.00
2014-7-3,85,68,56,54,46,40,65,46,26,30.32,30.22,11,1,21,0.00
2014-7-4,86,69,50,53,44,29,76,45,15,30.35,30.25,6,1,12,0.00
2014-7-5,85,70,57,53,42,-100,67,41,15,30.41,30.30,6,1,14,0.00
2014-7-6,87,69,54,52,42,31,66,42,14,30.43,30.29,4,0,11,0.00
2014-7-7,88,71,54,51,40,33,67,38,15,30.32,30.24,3,0,11,0.00
2014-7-8,87,69,54,55,44,38,60,43,23,30.33,30.22,2,0,10,0.00
2014-7-9,84,67,58,56,46,39,67,48,26,30.30,30.20,5,1,19,0.00
2014-7-10,80,67,58,59,54,46,91,65,37,30.26,30.16,5,1,12,0.03
2014-7-11,71,62,56,60,56,53,94,80,60,30.35,30.25,2,0,7,0.02
2014-7-12,84,67,53,61,54,50,94,67,34,30.45,30.32,3,0,7,0.00
2014-7-13,88,71,55,59,50,44,81,52,22,30.47,30.35,2,0,9,0.00
2014-7-14,93,73,56,60,48,40,72,45,19,30.41,30.29,5,1,6,0.00
2014-7-15,84,72,56,54,46,39,68,44,21,30.37,30.17,9,1,20,0.00
2014-7-16,78,67,55,52,49,39,78,53,30,30.26,30.18,6,1,16,0.00
2014-7-17,82,66,50,48,40,30,69,41,17,30.29,30.15,9,1,12,0.00
2014-7-18,82,70,58,49,37,26,53,32,13,30.28,30.19,8,1,20,0.00
2014-7-19,84,72,56,45,38,33,54,31,19,30.30,30.22,8,2,15,0.00
2014-7-20,86,67,56,53,43,32,75,44,25,30.28,30.19,7,1,15,0.00
2014-7-21,83,69,54,48,37,23,77,37,12,30.32,30.24,8,1,15,0.01
2014-7-22,89,70,51,49,38,19,66,35,8,30.46,30.32,3,0,10,0.01
2014-7-23,91,74,59,51,41,32,50,33,13,30.40,30.24,9,2,19,0.00
2014-7-24,86,75,61,53,46,35,50,37,21,30.30,30.19,7,1,16,0.00
2014-7-25,85,70,52,51,40,26,67,39,13,30.27,30.17,9,1,17,0.00
2014-7-26,81,69,55,55,42,31,67,41,16,30.38,30.25,10,2,16,0.00
2014-7-27,89,70,54,50,42,36,56,38,22,30.45,30.33,3,0,7,0.00
2014-7-28,79,66,56,57,49,40,97,60,29,30.48,30.37,6,0,15,0.08
2014-7-29,63,59,56,60,57,55,98,93,81,30.42,30.31,3,0,9,0.13
2014-7-30,66,58,54,60,56,51,97,92,77,30.43,30.35,3,0,6,0.04
2014-7-31,76,58,50,58,50,49,97,78,42,30.44,30.33,4,1,6,0.02
2014-8-1,82,64,51,54,50,45,88,66,28,30.41,30.30,4,1,6,0.00
2014-8-2,81,67,51,53,49,45,81,56,31,30.41,30.29,5,1,11,0.00
2014-8-3,78,62,53,57,50,41,84,66,28,30.36,30.30,5,0,17,0.02
2014-8-4,75,62,54,59,54,48,95,77,43,30.33,30.19,5,1,15,0.03
2014-8-5,72,59,52,57,54,51,97,84,54,30.34,30.26,7,1,17,0.02
2014-8-6,76,62,50,58,48,39,95,66,29,30.35,30.26,7,2,13,0.03
2014-8-7,74,61,46,53,50,45,96,70,45,30.40,30.23,9,2,16,0.57
2014-8-8,73,64,50,52,47,41,91,59,32,30.36,30.24,7,2,17,0.02
2014-8-9,78,64,51,51,42,36,80,49,23,30.40,30.31,3,1,9,0.00
2014-8-10,82,66,49,54,47,43,84,55,26,30.46,30.37,2,0,6,0.00
2014-8-11,84,66,51,50,44,37,73,49,20,30.46,30.35,8,1,14,0.00
2014-8-12,78,63,54,53,49,44,94,63,36,30.44,30.31,11,1,16,0.00
2014-8-13,72,60,50,60,52,48,97,77,48,30.37,30.24,2,0,6,0.03
2014-8-14,79,61,51,59,49,44,96,66,30,30.31,30.22,8,1,18,0.07
2014-8-15,82,72,55,50,45,41,74,39,25,30.35,30.26,5,1,16,0.01
2014-8-16,81,66,54,48,40,35,65,42,22,30.40,30.30,7,2,12,0.00
2014-8-17,87,65,52,45,37,33,55,39,16,30.37,30.25,4,1,11,0.00
2014-8-18,87,68,54,43,38,34,56,36,16,30.29,30.12,4,1,14,0.00
2014-8-19,67,57,53,55,50,43,95,80,41,30.20,30.07,2,0,10,0.18
2014-8-20,74,59,51,57,50,39,97,75,36,30.23,30.08,5,1,14,0.01
2014-8-21,70,58,50,53,47,43,94,69,40,30.29,30.22,4,1,12,0.00
2014-8-22,75,55,49,53,46,43,95,75,32,30.24,30.09,8,1,13,0.05
2014-8-23,59,50,42,47,42,37,96,74,46,30.24,30.13,9,1,17,0.03
2014-8-24,68,54,39,48,41,36,91,65,35,30.22,30.13,4,1,12,0.03
2014-8-25,72,57,45,51,47,43,95,73,40,30.24,30.14,6,1,18,0.53
2014-8-26,66,54,49,52,48,44,96,82,49,30.35,30.21,2,1,7,0.17
2014-8-27,62,54,48,53,49,47,96,86,67,30.41,30.31,7,1,12,0.02
2014-8-28,73,57,45,54,47,43,98,73,38,30.42,30.31,5,1,13,0.02
2014-8-29,81,60,46,49,42,38,81,57,22,30.33,30.22,5,1,12,0.03
2014-8-30,69,58,51,52,45,37,84,61,33,30.22,30.03,5,1,13,0.05
2014-8-31,65,57,47,47,41,33,80,56,34,30.20,30.02,8,2,19,0.01
2014-9-1,70,55,43,43,37,31,77,53,26,30.26,30.17,5,2,14,0.00
2014-9-2,81,63,44,46,39,34,72,45,22,30.26,30.05,5,1,13,0.00
2014-9-3,79,66,54,46,38,32,59,37,21,30.10,30.00,7,2,19,0.00
2014-9-4,70,56,43,37,32,28,64,43,23,30.22,30.09,7,2,15,0.00
2014-9-5,74,58,47,49,40,31,73,53,26,30.35,30.21,6,0,16,0.00
2014-9-6,75,57,47,51,45,42,86,65,36,30.43,30.29,6,0,12,0.03
2014-9-7,78,62,48,51,44,31,91,59,18,30.34,30.16,3,0,12,0.04
2014-9-8,75,60,52,57,49,39,95,69,42,30.22,30.10,8,1,22,0.06
2014-9-9,62,52,45,52,49,43,97,89,65,30.21,30.08,5,1,12,0.06
2014-9-10,66,53,41,48,43,34,97,71,41,30.26,30.19,8,2,16,0.06
2014-9-11,46,45,44,36,35,33,72,68,62,30.24,30.23,2,0,3,0.00
2014-9-17,82,72,57,51,46,42,60,42,25,30.24,30.13,5,1,10,0.00
2014-9-18,81,64,53,52,46,42,72,54,32,30.17,30.03,5,0,15,0.00
2014-9-19,76,62,50,55,50,45,89,68,44,30.30,30.12,4,1,12,0.00
2014-9-20,79,56,45,50,43,41,86,64,26,30.40,30.29,0,0,6,0.00
2014-9-21,57,53,48,54,47,39,96,81,58,30.38,30.28,2,0,7,0.12
2014-9-22,67,55,47,53,48,46,97,82,52,30.33,30.28,3,0,10,0.08
2014-9-23,74,59,48,51,46,40,86,65,33,30.37,30.29,5,1,14,0.00
2014-9-24,79,58,46,50,45,40,82,63,32,30.40,30.28,5,0,10,0.00
2014-9-25,81,64,50,49,40,28,75,48,15,30.31,30.18,9,1,17,0.00
2014-9-26,77,66,56,50,46,39,65,48,34,30.22,30.10,6,1,14,0.00
2014-9-27,61,50,43,52,47,42,96,91,65,30.14,30.05,7,1,14,0.04
2014-9-28,57,46,43,48,43,37,97,87,58,30.12,30.02,4,0,11,0.02
2014-9-29,54,44,39,45,40,38,96,87,62,30.14,30.05,5,0,13,0.01
2014-9-30,53,45,41,46,42,39,97,88,69,30.13,30.02,5,1,17,0.01
2014-10-1,45,39,32,40,34,30,95,86,65,30.29,30.03,7,1,18,0.00
2014-10-2,52,39,29,40,31,28,96,76,45,30.42,30.27,6,1,15,0.00
2014-10-3,60,44,33,36,31,27,83,62,33,30.53,30.41,6,1,12,0.00
2014-10-4,63,46,35,38,33,28,81,61,39,30.49,30.34,6,1,13,0.00
2014-10-5,64,49,37,40,34,28,83,59,28,30.37,30.30,8,2,18,0.00
2014-10-6,67,52,40,40,36,32,82,58,30,30.33,30.24,6,2,13,0.00
2014-10-7,71,53,41,41,35,31,81,55,24,30.30,30.22,5,1,16,0.00
2014-10-8,72,52,41,38,33,29,68,52,21,30.26,30.14,3,1,10,0.00
2014-10-9,69,48,39,41,35,32,78,63,29,30.18,30.11,3,0,10,0.00
2014-10-10,67,48,39,42,36,32,79,64,37,30.25,30.17,4,0,10,0.00
2014-10-11,60,44,38,39,33,30,85,65,39,30.27,30.03,7,0,15,0.00
2014-10-12,51,42,33,38,32,26,83,68,47,30.34,30.00,12,2,23,0.01
2014-10-13,54,39,29,31,26,23,84,64,36,30.39,30.31,6,1,13,0.01
2014-10-14,64,43,33,38,30,26,82,62,35,30.37,30.11,2,0,10,0.00
2014-10-15,65,51,44,34,30,23,62,47,21,30.18,30.01,11,2,23,0.00
2014-10-16,60,45,36,38,33,30,80,63,38,30.24,30.16,6,1,13,0.00
2014-10-17,40,39,38,30,29,28,68,66,63,30.20,30.18,0,0,2,0.00
2014-10-19,70,59,46,36,33,28,60,39,24,30.25,30.16,4,2,9,0.00
2014-10-20,73,54,41,38,34,31,71,51,25,30.23,30.09,5,1,10,0.00
2014-10-21,61,48,36,40,34,24,67,58,40,30.17,30.03,11,2,19,0.00
2014-10-22,55,40,29,32,27,22,77,62,33,30.29,30.16,4,0,13,0.00
2014-10-23,67,45,35,36,30,26,72,57,27,30.29,30.20,4,0,9,0.00
2014-10-24,64,48,42,36,30,27,59,51,34,30.33,30.22,2,0,8,0.00
2014-10-25,61,51,43,40,31,27,54,47,36,30.29,30.05,8,1,19,0.00
2014-10-26,58,48,38,40,32,24,66,53,41,30.11,30.02,9,2,26,0.01
2014-10-27,41,35,29,28,23,16,82,62,37,30.24,30.09,6,1,13,0.01
2014-10-28,51,32,24,24,18,16,71,59,27,30.34,30.22,5,0,12,0.00
2014-10-29,57,39,31,28,22,15,63,50,33,30.38,30.31,3,0,10,0.00
2014-10-30,70,46,34,30,26,24,68,49,18,30.40,30.25,5,1,9,0.00
2014-10-31,56,45,39,31,27,24,56,49,38,30.26,29.98,3,0,11,0.00
2014-11-1,61,47,41,40,31,25,84,54,42,29.98,29.74,7,1,19,0.03
2014-11-2,42,34,31,32,30,28,91,85,57,30.06,29.90,5,1,12,0.05
2014-11-3,35,29,23,28,25,20,92,83,61,30.38,30.06,5,1,12,0.02
2014-11-4,47,31,19,27,22,17,92,70,37,30.45,30.36,9,2,13,0.01
2014-11-5,53,39,30,35,28,21,85,66,49,30.53,30.42,4,0,11,0.00
2014-11-6,58,40,29,35,29,25,86,67,39,30.53,30.35,4,0,13,0.00
2014-11-7,56,43,34,36,31,26,84,63,43,30.44,30.32,8,1,16,0.00
2014-11-8,56,40,28,32,28,24,90,66,30,30.47,30.33,6,1,13,0.00
2014-11-9,63,46,33,31,27,23,73,51,25,30.35,29.77,5,1,21,0.01
2014-11-10,51,34,23,32,24,17,79,66,45,29.99,29.72,7,2,17,0.03
2014-11-11,36,26,16,23,17,9,87,70,54,30.05,29.91,7,1,13,0.02
2014-11-12,18,12,6,9,3,-2,78,67,57,30.18,30.05,3,0,10,0.00
2014-11-13,33,18,4,31,13,-4,95,81,68,30.18,29.96,4,0,11,0.00
2014-11-14,41,33,25,32,29,23,94,86,59,30.02,29.84,7,1,18,0.03
2014-11-15,34,22,8,30,17,4,91,81,73,30.16,29.85,10,2,20,0.01
2014-11-16,25,12,2,12,6,-2,85,75,53,30.40,30.16,4,1,13,0.20
2014-11-17,28,15,5,15,8,1,88,73,52,30.39,30.30,4,1,13,0.08
2014-11-18,37,23,12,21,14,7,86,70,50,30.36,30.25,5,1,11,0.01
2014-11-19,44,32,20,23,19,13,76,60,34,30.27,30.12,3,0,7,0.01
2014-11-20,43,32,27,23,19,16,74,58,38,30.14,30.05,4,0,10,0.00
2014-11-21,46,32,24,25,21,18,77,67,43,30.07,30.00,7,1,11,0.00
2014-11-22,39,32,28,34,27,22,95,81,58,30.03,29.74,9,1,24,0.07
2014-11-23,27,24,22,25,21,19,93,88,81,30.20,29.90,10,5,21,0.01
2014-11-24,32,24,17,25,20,13,90,82,66,30.42,30.12,11,2,26,0.20
2014-11-25,39,30,16,35,25,12,92,84,66,30.41,30.28,11,3,26,0.05
2014-11-26,47,39,30,33,30,25,82,71,52,30.44,30.32,11,3,25,0.15
2014-11-27,47,37,28,34,28,23,83,69,47,30.45,30.20,2,0,5,0.02
2014-11-28,58,42,36,29,21,7,67,48,13,30.22,29.88,4,1,13,0.00
2014-11-29,51,45,42,22,14,9,44,28,20,29.87,29.74,6,2,15,0.00
2014-11-30,45,37,31,34,28,15,91,73,29,30.12,29.80,11,1,21,0.01
2014-12-1,44,34,27,32,27,25,93,78,51,30.27,30.13,7,1,15,0.01
2014-12-2,44,36,29,30,27,23,83,69,55,30.20,30.05,3,0,13,0.00
2014-12-3,41,35,32,37,30,24,91,82,69,30.09,30.02,3,0,4,0.06
2014-12-4,45,37,32,38,33,29,94,87,71,30.15,30.03,2,0,5,0.01
2014-12-5,46,36,30,36,32,28,95,86,66,30.33,30.15,1,0,4,0.01
2014-12-6,47,35,31,34,30,27,90,80,59,30.38,30.29,2,0,9,0.01
2014-12-7,47,34,28,35,29,26,94,83,55,30.46,30.37,4,0,9,0.00
2014-12-8,47,34,27,31,27,23,87,74,46,30.40,30.34,4,0,7,0.00
2014-12-9,50,36,29,28,24,22,79,64,41,30.37,30.25,4,0,8,0.00
2014-12-10,30,15,29,21,10,20,70,42,68,30.29,30.27,1,0,2,0.00
2014-12-11,49,41,36,32,29,28,71,59,48,30.07,30.01,3,1,10,0.00
2014-12-12,50,43,37,34,30,28,74,61,51,30.08,29.90,7,2,17,0.00
2014-12-13,42,32,27,33,29,24,94,89,68,30.00,29.90,7,2,12,0.05
2014-12-14,27,24,19,25,21,16,94,88,83,30.15,29.98,10,4,14,0.01
2014-12-15,36,22,13,24,18,11,91,83,56,30.21,30.09,3,0,5,0.00
2014-12-16,40,30,25,26,23,21,87,76,53,30.08,29.97,3,0,9,0.00
2014-12-17,35,29,24,26,23,20,86,78,65,30.08,29.95,5,0,14,0.00
2014-12-18,33,27,21,27,23,18,89,83,71,30.21,30.05,3,0,6,0.01
2014-12-19,38,26,18,27,21,16,93,83,55,30.22,30.11,2,0,6,0.01
2014-12-20,32,28,28,30,26,25,95,90,85,30.15,30.05,4,0,6,0.00
2014-12-21,37,32,29,34,31,28,96,93,86,30.06,29.95,9,2,20,0.00
2014-12-22,34,30,23,31,27,18,96,89,81,30.19,29.96,10,5,18,1.27
2014-12-23,30,20,14,20,15,11,91,80,63,30.36,30.19,5,1,13,0.00